Preview of NWS' New Version of Forecast
This preview is not operational and should not be used for support decisions.

Regional Weather Roundup (RWR)

Issued by National Weather Service (NWS)

                            
000
ASUS43 KLSX 180007
RWRMO 

WEATHER SUMMARY FOR MISSOURI
NATIONAL WEATHER SERVICE SPRINGFIELD MO
600 PM CST SUN FEB 17 2019

NOTE: "FAIR" INDICATES FEW OR NO CLOUDS BELOW 12,000 FEET WITH NO
       SIGNIFICANT WEATHER AND/OR OBSTRUCTIONS TO VISIBILITY.
       CURRENT SKY AND/OR WEATHER CONDITIONS ARE NOT AVAILABLE FOR
       CHILLICOTHE AND FARMINGTON.

MOZ001>031-035>038-043-044-053-054-180100-
...NORTHERN AND WESTERN MISSOURI...
  
CITY           SKY/WX    TMP DP  RH WIND       PRES   REMARKS
KANSAS CTY INT CLOUDY    25  16  68 W10G21    30.01R WCI  15          
6HR MIN TEMP:  24; 6HR MAX TEMP:  26;                                

KANSAS C DTWN  CLOUDY    27  16  63 W12G22    30.02R WCI  17          
6HR MIN TEMP:  26; 6HR MAX TEMP:  29;                                

LEE'S SUMMIT   CLOUDY    26  17  68 NW18      30.00R WCI  13          
6HR MIN TEMP:  24; 6HR MAX TEMP:  28;                                

ST JOSEPH      CLOUDY    24  18  77 NW14      30.03R WCI  12          
6HR MIN TEMP:  24; 6HR MAX TEMP:  27;                                

CHILLICOTHE      N/A     27  21  78 W10G21    29.98R WCI  17          
6HR MIN TEMP:  27; 6HR MAX TEMP:  28;                                

KIRKSVILLE     LGT SNOW  29  28  96 W10       29.92R FOG     WCI  20  
6HR MIN TEMP:  28; 6HR MAX TEMP:  30; 6HR PCP: TRACE;                

     
$$
MOZ066>068-077>081-088>096-101>105-180100-
...SOUTHWEST MISSOURI...
  
CITY           SKY/WX    TMP DP  RH WIND       PRES   REMARKS
SPRINGFIELD    PTCLDY    29  20  69 NW7       29.98R WCI  22          
6HR MIN TEMP:  29; 6HR MAX TEMP:  31;                                

JOPLIN         PTCLDY    32  20  61 NW14G20   30.03R WCI  22          
6HR MIN TEMP:  28; 6HR MAX TEMP:  35;                                

BRANSON        CLOUDY    30  23  74 NW8       30.00R WCI  23          
               
$$
MOZ032>034-039>042-045>050-055>058-069>072-180100-
...CENTRAL MISSOURI...  
  
CITY           SKY/WX    TMP DP  RH WIND       PRES   REMARKS
COLUMBIA       CLOUDY    28  19  69 W9        29.95R WCI  19          
6HR MIN TEMP:  28; 6HR MAX TEMP:  30;                                

JEFFERSON CITY CLOUDY    30  19  63 W15G22    29.98R WCI  19          
6HR MIN TEMP:  30; 6HR MAX TEMP:  30;                                

ROLLA          CLOUDY    27  17  66 NW14G23   29.95R WCI  16          
6HR MIN TEMP:  27; 6HR MAX TEMP:  31;                                

SEDALIA        PTCLDY    25  18  74 W9        29.99R WCI  15          
6HR MIN TEMP:  25; 6HR MAX TEMP:  28;                                

WHITEMAN AFB   MOCLDY    27  18  69 W9        29.80R WCI  17          
WARRENSBURG    CLEAR     27  18  69 W8        30.01R WCI  18          
OSAGE BEACH    CLEAR     27  18  69 W10       30.00R WCI  17          
               
$$
MOZ051-052-059>065-180100-
...EAST CENTRAL MISSOURI...
  
CITY           SKY/WX    TMP DP  RH WIND       PRES   REMARKS
ST LOUIS INTL  CLOUDY    31  22  69 W18       29.92R WCI  19          
6HR MIN TEMP:  31; 6HR MAX TEMP:  34;                                

SPIRIT OF STL  CLOUDY    31  22  69 W12G21    29.93R WCI  22          
6HR MIN TEMP:  31; 6HR MAX TEMP:  34;                                

ST CHARLES     CLOUDY    31  23  72 W16G23    29.93R WCI  20          
6HR MIN TEMP:  31; 6HR MAX TEMP:  34;                                

                   
$$
MOZ072>076-082>087-097>100-106>115-180100-
...SOUTH CENTRAL AND SOUTHEAST MISSOURI...
  
CITY           SKY/WX    TMP DP  RH WIND       PRES   REMARKS
CAPE GIRARDEAU FAIR      38  28  67 NW12      29.91R                  
6HR MIN TEMP:  37; 6HR MAX TEMP:  42;                                

FARMINGTON     CLOUDY    33  23  66 W12       29.92R WCI  24          
6HR MIN TEMP:  33; 6HR MAX TEMP:  38;                                

POPLAR BLUFF   FAIR      36  28  73 W7        29.94R                  
6HR MIN TEMP:  36; 6HR MAX TEMP:  43;                                

WEST PLAINS    CLOUDY    30  24  78 W10       29.96R WCI  21          
6HR MIN TEMP:  30; 6HR MAX TEMP:  34;                                

                                       
$$